User: anonymous   Login
Location: Indian Springs
(36.5700°N, 115.6700°W)
Time: 07:59:03
(UTC-07:00)
Language:

Cosmos 2278 Rocket - Orbit

View from above orbital plane
View from above orbital plane
View from above satellite
View from above satellite

Ground track
Ground track

The orbit data is extracted from the following two-line orbital elements,

1 23088U 94023B   16238.14003364 -.00000265  00000-0 -11322-3 0  9997
2 23088  71.0001 183.4113 0004435 224.5535 135.5231 14.14646166153676
Epoch (UTC): 25 August 2016 03:21:38
Eccentricity: 0.0004435
inclination: 71.0001°
perigee height: 840 km
apogee height: 847 km
right ascension of ascending node: 183.4113°
argument of perigee: 224.5535°
revolutions per day: 14.14646166
mean anomaly at epoch: 135.5231°
orbit number at epoch: 15367

The dashed part of the orbit path shows where the satellite is in the earth's shadow,  

DLR